TimeMST,TemperatureF,Dew PointF,Humidity,Sea Level PressureIn,VisibilityMPH,Wind Direction,Wind SpeedMPH,Gust SpeedMPH,PrecipitationIn,Events,Conditions,WindDirDegrees,DateUTC
12:51 AM,10.9,5.0,77,30.62,10.0,West,10.4,-,N/A,,Clear,280,2012-11-23 07:51:00
1:51 AM,10.9,5.0,77,30.61,10.0,West,9.2,-,N/A,,Clear,280,2012-11-23 08:51:00
2:51 AM,12.0,6.1,77,30.61,10.0,WNW,10.4,-,N/A,,Clear,290,2012-11-23 09:51:00
3:51 AM,10.9,5.0,77,30.61,10.0,West,9.2,-,N/A,,Clear,280,2012-11-23 10:51:00
4:51 AM,10.9,6.1,81,30.60,10.0,WNW,4.6,-,N/A,,Clear,290,2012-11-23 11:51:00
5:51 AM,10.9,6.1,81,30.61,10.0,Calm,Calm,-,N/A,,Clear,0,2012-11-23 12:51:00
6:51 AM,9.0,3.0,77,30.60,10.0,SE,3.5,-,N/A,,Clear,130,2012-11-23 13:51:00
7:51 AM,12.0,5.0,73,30.58,10.0,Calm,Calm,-,N/A,,Clear,0,2012-11-23 14:51:00
8:51 AM,17.1,10.9,77,30.56,10.0,Calm,Calm,-,N/A,,Clear,0,2012-11-23 15:51:00
9:51 AM,24.1,15.1,69,30.54,10.0,Calm,Calm,-,N/A,,Clear,0,2012-11-23 16:51:00
10:51 AM,28.9,17.1,61,30.48,10.0,SE,6.9,-,N/A,,Clear,130,2012-11-23 17:51:00
11:51 AM,30.0,18.0,61,30.45,10.0,SSE,10.4,-,0.00,,Clear,150,2012-11-23 18:51:00
12:51 PM,34.0,21.0,59,30.41,10.0,SE,10.4,-,N/A,,Clear,130,2012-11-23 19:51:00
1:51 PM,37.0,21.9,54,30.36,10.0,SE,12.7,-,N/A,,Clear,140,2012-11-23 20:51:00
2:51 PM,37.0,21.9,54,30.33,10.0,SE,11.5,-,N/A,,Mostly Cloudy,130,2012-11-23 21:51:00
3:51 PM,35.1,23.0,61,30.32,10.0,SE,9.2,-,N/A,,Overcast,130,2012-11-23 22:51:00
4:51 PM,34.0,21.9,61,30.29,10.0,ESE,10.4,-,N/A,,Overcast,120,2012-11-23 23:51:00
5:51 PM,32.0,19.9,61,30.26,10.0,SE,12.7,-,N/A,,Partly Cloudy,140,2012-11-24 00:51:00
6:51 PM,30.9,19.0,61,30.24,10.0,SE,15.0,-,N/A,,Partly Cloudy,140,2012-11-24 01:51:00
7:51 PM,30.0,19.0,64,30.19,10.0,SSE,16.1,-,N/A,,Clear,150,2012-11-24 02:51:00
8:51 PM,30.0,18.0,61,30.16,10.0,SE,12.7,-,N/A,,Clear,130,2012-11-24 03:51:00
9:51 PM,28.9,19.0,67,30.13,10.0,SE,8.1,-,N/A,,Partly Cloudy,130,2012-11-24 04:51:00
10:51 PM,28.0,18.0,66,30.09,10.0,SE,9.2,-,N/A,,Clear,140,2012-11-24 05:51:00
11:51 PM,26.1,18.0,71,30.08,10.0,SE,5.8,-,N/A,,Clear,130,2012-11-24 06:51:00